CO-58
1 28895U 05043F 16335.46926450 .00000239 00000-0 54932-4 0 9999
2 28895 97.8432 141.1898 0017937 55.3551 304.9340 14.63305788591429
AAUSAT2
1 32788U 08021F 16336.08199280 .00000574 00000-0 59590-4 0 9993
2 32788 97.5840 13.2944 0013510 75.3346 284.9371 14.93572662466100
DO-64
1 32789U 08021G 16336.22671516 .00001997 00000-0 14815-3 0 9997
2 32789 97.5876 32.4356 0014435 60.1276 300.1382 15.04131710467103
CO-66
1 32791U 08021J 16336.15043525 .00000433 00000-0 50306-4 0 9995
2 32791 97.5857 7.0041 0015080 91.8537 268.4408 14.90014100465652
RS-30
1 32953U 08025A 16336.85388264 .00000026 00000-0 11659-3 0 9993
2 32953 82.5032 2.3819 0018752 0.0881 0.0199 12.43073319386905
JUGNU
1 37839U 11058B 16336.01345999 .00000333 00000-0 35800-4 0 9993
2 37839 19.9602 212.0796 0019062 158.9230 333.7916 14.12564479265640
SRMSAT
1 37841U 11058D 16336.91143451 .00000325 00000-0 33371-4 0 9996
2 37841 19.9715 244.2620 0011963 75.0115 347.2427 14.10559755265392
AO-71
1 37854U 11061E 16335.89582507 .00001980 00000-0 11524-3 0 9992
2 37854 101.7018 102.7107 0170074 301.4388 057.0291 15.03202108276686
HRBE
1 37855U 11061F 16335.90067169 .00002131 00000-0 12096-3 0 9991
2 37855 101.7134 100.6645 0183637 306.7094 051.7367 15.02139798276544
HORYU-2
1 38340U 12025D 16335.90316059 .00000334 00000-0 57573-4 0 9990
2 38340 98.3682 326.9525 0011234 196.9492 163.1342 14.75197635244052
RS-40
1 38735U 12041C 16336.78165774 .00000016 00000-0 45652-4 0 9991
2 38735 82.4769 87.2790 0017659 99.3992 260.9085 12.42574351197186
BEESAT-3
1 39134U 13015E 16336.62636530 .00001835 00000-0 10211-3 0 9995
2 39134 64.8692 143.6847 0019959 303.2343 56.6869 15.16944128199506
BEESAT-2
1 39136U 13015G 16335.91212292 .00001444 00000-0 88347-4 0 9995
2 39136 064.8689 154.0443 0020747 305.9700 053.9500 15.14403365198855
ZACUBE-1
1 39417U 13066B 16336.69173112 .00000370 00000-0 53529-4 0 9997
2 39417 97.6583 22.2181 0059225 194.3497 165.6036 14.80565136163556
TRITON-1
1 39427U 13066M 16336.85019296 .00000265 00000-0 51064-4 0 9993
2 39427 97.6517 359.3177 0113144 260.6322 98.2077 14.67332097162107
GOMX-1
1 39430U 13066Q 16336.83689096 .00000329 00000-0 69563-4 0 9990
2 39430 97.6635 344.9843 0151045 306.6120 52.1266 14.58742320161158
LO-74
1 39440U 13066AA 16336.14128593 .00000309 00000-0 50677-4 0 9999
2 39440 97.6534 12.4794 0080049 221.9083 137.5983 14.75315728162894
SPROUT
1 39770U 14029E 16336.73925440 .00001479 00000-0 17608-3 0 9991
2 39770 97.8741 72.1512 0007994 254.2643 105.7669 14.85842830136813
EO-80
1 40032U 14033Y 16336.67804626 .00000495 00000-0 60277-4 0 9992
2 40032 97.9178 241.3128 0010892 224.5618 135.4723 14.87796322133079
VELOX-1
1 40057U 14034E 16336.68750621 .00000577 00000-0 89653-4 0 9996
2 40057 98.1916 67.9944 0010699 337.5326 22.5417 14.76930816130601
DAURIA DX 1
1 40071U 14037C 16336.70954064 .00000247 00000-0 39339-4 0 9995
2 40071 98.3320 74.0891 0008149 336.2676 23.8167 14.80926026129741
UKUBE-1
1 40074U 14037F 16336.85699873 .00000573 00000-0 77115-4 0 9994
2 40074 98.3385 77.1195 0004091 344.4711 15.6368 14.83303378129923
HODOYOSHI-1
1 40299U 14070B 16336.70950568 .00001301 00000-0 60203-4 0 9995
2 40299 97.4210 56.3487 0015128 67.0889 84.0151 15.21834967114907
CHUBUSAT-1
1 40300U 14070C 16336.74370821 .00001579 00000-0 75178-4 0 9994
2 40300 97.4147 54.1328 0022609 73.2894 25.9581 15.20395370114782
QSAT-EOS
1 40301U 14070D 16336.45576652 .00003115 00000-0 13697-3 0 9998
2 40301 97.4092 53.4429 0030172 72.2671 343.6607 15.22225403114748
FIREBIRD FU3
1 40377U 15003B 16336.09607402 .00002530 00000-0 11450-3 0 9991
2 40377 99.1042 114.9668 0139011 298.3549 60.3718 15.14011814101023
FIREBIRD FU4
1 40378U 15003C 16336.81790565 .00003134 00000-0 14040-3 0 9994
2 40378 99.1045 115.8525 0139156 295.8743 62.8191 15.14035888101138
GRIFEX
1 40379U 15003D 16336.83552794 .00001991 00000-0 95517-4 0 9995
2 40379 99.1050 114.4514 0144104 301.1170 57.5985 15.11920489101052
NO-84
1 40654U 15025D 16336.35988109 .00008493 00000-0 16948-3 0 03005
2 40654 054.9978 038.1750 0197089 129.3225 232.5333 15.29620923049581
NO-83
1 40655U 15025E 16336.34895085 .00014793 00000-0 25340-3 0 03359
2 40655 054.9846 025.1115 0172282 135.9571 225.5331 15.36684971049741
DEORBITSAIL
1 40719U 15032E 16335.75476248 .00000711 00000-0 11097-3 0 9993
2 40719 97.9990 225.7628 0017876 62.8906 297.4124 14.75816532 75056
NUDT-PHONESAT
1 40900U 15049B 16336.38830417 .00002912 00000-0 14541-3 0 9997
2 40900 97.4442 341.2971 0014161 188.7046 171.3944 15.18195533 66438
XW-2D
1 40907U 15049J 16336.85977723 .00001111 00000-0 64341-4 0 9992
2 40907 97.4506 340.2028 0014999 169.9295 190.2241 15.14175471 66372
XW-2F
1 40910U 15049M 16336.83125273 .00001619 00000-0 90363-4 0 9995
2 40910 97.4533 340.5656 0015944 168.7922 191.3668 15.14855717 66262
XW-2B
1 40911U 15049N 16336.86164429 .00001087 00000-0 63082-4 0 9992
2 40911 97.4553 340.4753 0014897 170.1458 190.0068 15.14147938 66279
DCBB
1 40912U 15049P 16336.30678757 .00002200 00000-0 11481-3 0 9999
2 40912 97.4522 341.3168 0016101 164.8735 321.5991 15.16879980 66282
TW-1C
1 40926U 15051B 16336.87716611 .00008334 00000-0 21321-3 0 9999
2 40926 97.2557 12.1235 0013512 157.1614 325.0581 15.39582901 66536
TW-1A
1 40928U 15051D 16336.87034927 .00003398 00000-0 10347-3 0 9995
2 40928 97.2516 10.1727 0012961 178.4376 303.7589 15.34599540 66426
IO-86
1 40931U 15052B 16336.39803811 .00000613 00000-0 -36967-5 0 9999
2 40931 5.9984 202.9867 0013672 327.6010 32.3681 14.76498750 63683
GomX-3
1 40949U 98067HA 16292.18357804 .08527750 12374-4 77882-3 0 9992
2 40949 51.6055 106.7696 0006699 286.1344 73.8944 16.38002265 59645
LQSat
1 40958U 15057A 16336.70157045 .00000116 00000-0 25849-4 0 9992
2 40958 98.0004 49.2593 0018053 342.7760 17.2833 14.72927067 62048
AO-85
1 40967U 15058D 16336.37213109 .00000751 00000-0 10325-3 0 03294
2 40967 064.7778 098.8416 0183310 150.2104 210.9582 14.75257005047938
ATHENOXAT-1
1 41168U 15077C 16336.09254630 .00003211 00000-0 14824-3 0 9997
2 41168 14.9862 175.7537 0012138 153.3186 124.7326 15.10824525 53027
ChubuSat-2
1 41338U 16012B 16335.87177050 .00000570 00000-0 38282-4 0 9991
2 41338 31.0040 291.6249 0014062 256.4091 103.4978 14.99584188 43198
ChubuSat-3
1 41339U 16012C 16336.89276367 .00000643 00000-0 43884-4 0 9991
2 41339 31.0138 284.6153 0013964 272.8703 87.0345 14.99803192 43324
Horyu-4
1 41340U 16012D 16336.21299707 .00000883 00000-0 61856-4 0 9997
2 41340 31.0058 287.6467 0014331 272.2472 87.6522 15.00340061 43253
OUFTI-1
1 41458U 16025C 16336.00969975 .00003975 00000-0 21900-3 0 9999
2 41458 98.2057 356.1288 0177270 231.1349 127.3945 15.02222861 32819
e-st@r-II
1 41459U 16025D 16335.88136200 .00003734 00000-0 20612-3 0 9994
2 41459 098.2038 355.9702 0177965 231.8379 126.6697 15.02124003032790
AAUSAT4
1 41460U 16025E 16336.83811939 .00002366 00000-0 13441-3 0 9993
2 41460 98.1974 357.0383 0169748 227.3776 131.2994 15.02670242 32949
MinXSS
1 41474U 98067HU 16335.76409143 .00053888 00000-0 45105-3 0 9992
2 41474 51.6436 297.3967 0004266 71.9740 288.1722 15.69432595 30974
CADRE
1 41475U 98067HV 16336.36237303 .00227160 00000-0 87516-3 0 9995
2 41475 51.6336 287.7654 0007307 106.0069 254.1741 15.86106481 31159
